Change the Weather History Date:

Friday, August 16, 2013

  Actual Average Record
Temperature  
Mean Temperature 68 °F -  
Max Temperature 76 °F 68 °F 82 °F (2002)
Min Temperature 59 °F 52 °F 51 °F (2005)
Cooling Degree Days 2    
Growing Degree Days 18 (Base 50)    
Moisture  
Dew Point 57 °F    
Average Humidity 73    
Maximum Humidity 94    
Minimum Humidity 41    
Precipitation  
Precipitation 0.00 in 0.12 in - ()
Sea Level Pressure  
Sea Level Pressure 30.10 in    
Wind  
Wind Speed 7 mph ()    
Max Wind Speed 13 mph    
Max Gust Speed 20 mph    
Visibility 15.0 miles    
Events      
Averages and records for this station are not official NWS values.
T = Trace of Precipitation, MM = Missing Value Source: Averaged Metar Reports

Daily Weather History Graph

Daily Weather History Graph

Search for Another Location

Airport or City:

Trip Planner

Search our weather history database for the weather conditions in past years. The results will help you decide how hot, cold, wet, or windy it might be!

Date:

Astronomy

Aug. 16, 2013 Rise Set
Actual Time 6:12 AM ADT 8:19 PM ADT
Civil Twilight 5:40 AM ADT 8:52 PM ADT
Nautical Twilight 4:59 AM ADT 9:32 PM ADT
Astronomical Twilight 4:14 AM ADT 10:17 PM ADT
Moon 4:41 PM ADT (8/16) 1:04 AM ADT (8/16)
Length of Visible Light 15h 12m
Length of Day
14h 06m
Waxing Gibbous, 74% of the Moon is Illuminated
Aug 16
Waxing Gibbous
Aug 20
Full
Aug 28
Last Quarter
Sep 5
New
Sep 12
First Quarter

Hourly Weather History & Observations

Time (ADT) Temp. Dew Point Humidity Pressure Visibility Wind Dir Wind Speed Gust Speed Precip Events Conditions
12:00 AM 60.8 °F 57.2 °F 88% 30.01 in 15.0 mi SW 6.9 mph - N/A   Clear
1:00 AM 60.8 °F 57.2 °F 88% 30.03 in 15.0 mi SW 6.9 mph - N/A   Clear
2:00 AM 59.0 °F 55.4 °F 88% 30.03 in 15.0 mi SW 6.9 mph - N/A   Clear
3:00 AM 60 °F 56 °F 84% 30.03 in 15 mi SW 8.1 mph - -  
3:00 AM 59.0 °F 57.2 °F 94% 30.03 in 15.0 mi SW 8.1 mph - N/A   Clear
4:00 AM 59.0 °F 55.4 °F 88% 30.04 in 15.0 mi SW 6.9 mph - N/A   Clear
5:00 AM 59.0 °F 55.4 °F 88% 30.04 in 15.0 mi SW 6.9 mph - N/A   Clear
6:00 AM 59.0 °F 55.4 °F 88% 30.06 in 15.0 mi SW 5.8 mph - N/A   Clear
7:00 AM 59.0 °F 55.4 °F 88% 30.08 in 15.0 mi SW 8.1 mph - N/A   Scattered Clouds
8:00 AM 60.8 °F 57.2 °F 88% 30.09 in 15.0 mi WSW 9.2 mph - N/A   Scattered Clouds
9:00 AM 64.4 °F 59.0 °F 83% 30.11 in 15.0 mi SW 9.2 mph - N/A   Scattered Clouds
10:00 AM 68.0 °F 59.0 °F 73% 30.12 in 15.0 mi SW 8.1 mph - N/A   Scattered Clouds
11:00 AM 69.8 °F 60.8 °F 73% 30.13 in 15.0 mi SSW 6.9 mph - N/A   Scattered Clouds
12:00 PM 71.6 °F 59.0 °F 64% 30.13 in 15.0 mi SSW 11.5 mph - N/A   Scattered Clouds
1:00 PM 73.4 °F 59.0 °F 61% 30.13 in 15.0 mi South 12.7 mph - N/A   Scattered Clouds
2:00 PM 73.4 °F 57.2 °F 57% 30.14 in 15.0 mi SSW 9.2 mph - N/A   Mostly Cloudy
3:00 PM 74 °F 55 °F 41% 30.14 in 15 mi South 6.9 mph - -   Scattered Clouds
3:00 PM 75.2 °F 55.4 °F 50% 30.14 in 15.0 mi South 8.1 mph 19.6 mph N/A   Mostly Cloudy
4:00 PM 75.2 °F 59.0 °F 57% 30.13 in 15.0 mi SW 9.2 mph - N/A   Mostly Cloudy
5:00 PM 75.2 °F 57.2 °F 53% 30.14 in 15.0 mi South 9.2 mph - N/A   Mostly Cloudy
6:00 PM 75.2 °F 55.4 °F 50% 30.13 in 15.0 mi South 10.4 mph - N/A   Mostly Cloudy
7:00 PM 71.6 °F 57.2 °F 60% 30.13 in 15.0 mi South 8.1 mph - N/A   Mostly Cloudy
8:00 PM 69.8 °F 59.0 °F 68% 30.14 in 15.0 mi SSE 10.4 mph - N/A   Mostly Cloudy
9:00 PM 68 °F 59 °F 67% 30.16 in 15 mi South 8.1 mph - -   Partly Cloudy
9:00 PM 68.0 °F 59.0 °F 73% 30.16 in 15.0 mi South 6.9 mph - N/A   Scattered Clouds
10:00 PM 68.0 °F 59.0 °F 73% 30.18 in 15.0 mi SW 5.8 mph - N/A   Scattered Clouds
11:00 PM 64.4 °F 57.2 °F 77% 30.18 in 15.0 mi SSW 5.8 mph - N/A   Scattered Clouds